STARLINK-1913, 47179

Orbit data source: Space-Track

STARLINK-1913, 47179 is a payload satellite owned by SpaceX/Seattle (US) in LEO that was launched on Wed, 25 Nov 2020 UTC via an FALCON 9 launch vehicle from the Air Force Eastern Test Range (AFETR). Payload-class satellites include a variety of spacecraft equipped with specific instruments for various scientific and technological missions. These include communications satellites like Starlink; space stations such as the ISS; scientific satellites like the Hubble; Earth observation satellites from companies like Planet Labs, Umbra, and HawkEye 360; GPS; miniature CubeSats for education and research; and military/defense satellites.

Loading next visibility...
Identifier
47179, 2020-088BK
Orbit
LEO
Country
Flag of USUS
Related business
Manufacturer
SpaceX/Seattle
Mission
Partially operational Commercial Communications
Bus & Motor
STARLINK, Unknown motor
Mass
260 kg wet, ~248 kg dry
Launch date (UTC)
2020-11-25 (6 years ago)
Launch vehicle
FALCON 9
Launch site
Air Force Eastern Test Range (AFETR)
Object type
Payload
Rocket body
Debris
Shape & HBR
Box + 1 Pan, 10.1 m
Radar Cross Section
13.562 m², Large (>1 m²)

Expand to show TLE details & history
Last TLE update: 2 days ago

TLE from 2 days ago
0 STARLINK-1913
1 47179U 20088BK  26171.42274590  .00030509  00000-0  88412-3 0  9999
2 47179  53.1572 188.5460 0005560  30.3088 329.8235 15.35312991307510
Epoch: 2026-06-20T10:08Z
TLE epoch observation values (Epoch: 2026-06-20T10:08:45.245Z)
Latitude
-0.00008°
Longitude
127.71983°
Altitude
457.606 km
Speed
7.641 km/s
True Right ascension
12h 34m 11s
True Declination
0° 00' 00"
Sunlit
Object was in daylight at epoch
Visualization orbit readout
Latitude
Unknown
Longitude
Unknown
Altitude
Unknown
Speed
Unknown
Apparent Right ascension
Unknown
Apparent Declination
Unknown
Sunlit
N/A
Visualization observer readout
Local Sidereal Time
21:32:06
Azimuth
Unknown
Elevation
Unknown
Doppler factor
Unknown
Orbital elements
Apogee altitude
464.051 km
Perigee altitude
456.446 km
Semi-major axis
6,838.385 km
Eccentricity
0.00056
Inclination
53.1572°
RAAN
188.546°
Arg. of periapsis
30.3088°
True anomaly
329.79145°
Mean anomaly
329.8235°
Eccentric anomaly
329.80748°
Mean motion
3.83807 °/min
Orbital period
93.8 mins
BSTAR
0.00088412
Loading maneuver chart data...
Computing Atmospheric mass density...

Documentation

Showing up to 5 results
|